Time,TemperatureF,DewpointF,PressureIn,WindDirection,WindDirectionDegrees,WindSpeedMPH,WindSpeedGustMPH,Humidity,HourlyPrecipIn,Conditions,Clouds,dailyrainin,SoftwareType,DateUTC
2013-04-24 00:02:00,58.5,38.3,30.04,WSW,253,4.0,6.0,47,0.00,,,0.00,meteohub,2013-04-24 07:02:00,
2013-04-24 00:22:00,58.6,37.9,30.04,WSW,240,3.0,6.0,46,0.00,,,0.00,meteohub,2013-04-24 07:22:00,
2013-04-24 00:42:00,58.6,37.9,30.04,WSW,258,3.0,5.0,46,0.00,,,0.00,meteohub,2013-04-24 07:42:00,
2013-04-24 01:02:00,58.8,38.1,30.04,WSW,246,4.0,6.0,46,0.00,,,0.00,meteohub,2013-04-24 08:02:00,
2013-04-24 01:22:00,58.8,37.6,30.04,SW,233,3.0,5.0,45,0.00,,,0.00,meteohub,2013-04-24 08:22:00,
2013-04-24 01:42:00,58.8,36.3,30.01,South,183,4.0,5.0,43,0.00,,,0.00,meteohub,2013-04-24 08:42:00,
2013-04-24 02:02:00,58.8,36.3,30.01,SW,216,0.0,0.0,43,0.00,,,0.00,meteohub,2013-04-24 09:02:00,
2013-04-24 02:22:00,58.8,36.3,30.01,SSW,194,0.0,0.0,43,0.00,,,0.00,meteohub,2013-04-24 09:22:00,
2013-04-24 02:42:00,58.6,36.1,30.01,South,172,0.0,0.0,43,0.00,,,0.00,meteohub,2013-04-24 09:42:00,
2013-04-24 03:02:00,58.6,36.9,30.01,South,172,0.0,0.0,44,0.00,,,0.00,meteohub,2013-04-24 10:02:00,
2013-04-24 03:22:00,58.8,37.0,30.01,ESE,120,0.0,2.0,44,0.00,,,0.00,meteohub,2013-04-24 10:22:00,
2013-04-24 03:42:00,58.6,37.4,29.99,ENE,64,0.0,3.0,45,0.00,,,0.00,meteohub,2013-04-24 10:42:00,
2013-04-24 04:02:00,58.6,37.4,29.99,ENE,72,0.0,4.0,45,0.00,,,0.00,meteohub,2013-04-24 11:02:00,
2013-04-24 04:22:00,58.3,37.6,29.99,ENE,72,0.0,0.0,46,0.00,,,0.00,meteohub,2013-04-24 11:22:00,
2013-04-24 04:42:00,58.1,37.4,29.99,ENE,72,0.0,0.0,46,0.00,,,0.00,meteohub,2013-04-24 11:42:00,
2013-04-24 05:02:00,58.3,38.7,29.99,SSW,194,0.0,0.0,48,0.00,,,0.00,meteohub,2013-04-24 12:02:00,
2013-04-24 05:22:00,58.3,38.7,29.99,SSW,193,0.0,4.0,48,0.00,,,0.00,meteohub,2013-04-24 12:22:00,
2013-04-24 05:42:00,58.3,39.2,29.99,SSW,194,0.0,0.0,49,0.00,,,0.00,meteohub,2013-04-24 12:42:00,
2013-04-24 06:02:00,58.1,39.6,29.99,SSW,193,0.0,0.0,50,0.00,,,0.00,meteohub,2013-04-24 13:02:00,
2013-04-24 06:22:00,58.1,40.1,29.99,SSW,193,0.0,3.0,51,0.00,,,0.00,meteohub,2013-04-24 13:22:00,
2013-04-24 06:42:00,58.1,40.1,29.99,SSW,193,0.0,0.0,51,0.00,,,0.00,meteohub,2013-04-24 13:42:00,
2013-04-24 07:02:00,58.5,40.8,29.99,SSW,194,0.0,4.0,52,0.00,,,0.00,meteohub,2013-04-24 14:02:00,
2013-04-24 07:22:00,58.8,40.8,30.01,South,188,0.0,5.0,51,0.00,,,0.00,meteohub,2013-04-24 14:22:00,
2013-04-24 07:42:00,59.4,41.2,30.01,South,191,3.0,5.0,51,0.00,,,0.00,meteohub,2013-04-24 14:42:00,
2013-04-24 08:02:00,59.7,40.5,30.01,South,183,0.0,6.0,49,0.00,,,0.00,meteohub,2013-04-24 15:02:00,
2013-04-24 08:22:00,60.3,40.5,30.01,South,174,3.0,6.0,48,0.00,,,0.00,meteohub,2013-04-24 15:22:00,
2013-04-24 08:42:00,60.4,39.0,30.01,South,182,4.0,5.0,45,0.00,,,0.00,meteohub,2013-04-24 15:42:00,
2013-04-24 09:02:00,60.1,38.1,30.01,South,180,4.0,4.0,44,0.00,,,0.00,meteohub,2013-04-24 16:02:00,
2013-04-24 09:22:00,59.9,38.5,30.01,SSW,207,3.0,6.0,45,0.00,,,0.00,meteohub,2013-04-24 16:22:00,
2013-04-24 09:42:00,59.2,39.6,30.01,South,186,4.0,6.0,48,0.00,,,0.00,meteohub,2013-04-24 16:42:00,
2013-04-24 10:02:00,58.8,40.3,30.04,South,171,3.0,8.0,50,0.00,,,0.00,meteohub,2013-04-24 17:02:00,
2013-04-24 10:22:00,58.8,39.7,30.01,SW,218,5.0,6.0,49,0.00,,,0.00,meteohub,2013-04-24 17:22:00,
2013-04-24 10:42:00,59.2,38.5,30.04,SSE,163,6.0,9.0,46,0.00,,,0.00,meteohub,2013-04-24 17:42:00,
2013-04-24 11:02:00,59.5,38.1,30.04,SW,233,6.0,8.0,45,0.00,,,0.00,meteohub,2013-04-24 18:02:00,
2013-04-24 11:22:00,59.4,37.9,30.04,WSW,237,8.0,9.0,45,0.00,,,0.00,meteohub,2013-04-24 18:22:00,
2013-04-24 11:42:00,59.2,37.2,30.04,SW,215,5.0,10.0,44,0.00,,,0.00,meteohub,2013-04-24 18:42:00,
2013-04-24 12:02:00,59.7,36.5,30.04,SW,226,8.0,9.0,42,0.00,,,0.00,meteohub,2013-04-24 19:02:00,
2013-04-24 12:22:00,60.3,34.5,30.04,WSW,248,5.0,10.0,38,0.00,,,0.00,meteohub,2013-04-24 19:22:00,
2013-04-24 12:42:00,60.4,34.7,30.04,SSW,196,5.0,11.0,38,0.00,,,0.00,meteohub,2013-04-24 19:42:00,
2013-04-24 13:02:00,60.4,34.7,30.04,SW,218,6.0,9.0,38,0.00,,,0.00,meteohub,2013-04-24 20:02:00,
2013-04-24 13:22:00,61.0,33.8,30.04,SW,229,8.0,8.0,36,0.00,,,0.00,meteohub,2013-04-24 20:22:00,
2013-04-24 13:42:00,61.7,34.5,30.04,SSW,192,8.0,9.0,36,0.00,,,0.00,meteohub,2013-04-24 20:42:00,
2013-04-24 14:02:00,63.0,34.9,30.04,SW,214,9.0,10.0,35,0.00,,,0.00,meteohub,2013-04-24 21:02:00,
2013-04-24 14:22:00,65.7,36.5,30.04,South,173,5.0,9.0,34,0.00,,,0.00,meteohub,2013-04-24 21:22:00,
2013-04-24 14:42:00,62.8,34.0,30.01,SSW,199,5.0,8.0,34,0.00,,,0.00,meteohub,2013-04-24 21:42:00,
2013-04-24 15:02:00,62.2,34.2,30.01,SW,221,3.0,7.0,35,0.00,,,0.00,meteohub,2013-04-24 22:02:00,
2013-04-24 15:22:00,62.1,34.2,30.01,WSW,243,5.0,5.0,35,0.00,,,0.00,meteohub,2013-04-24 22:22:00,
2013-04-24 15:42:00,62.6,33.8,30.01,South,187,4.0,6.0,34,0.00,,,0.00,meteohub,2013-04-24 22:42:00,
2013-04-24 16:02:00,62.8,34.0,30.01,SW,222,4.0,6.0,34,0.00,,,0.00,meteohub,2013-04-24 23:02:00,
2013-04-24 16:22:00,64.6,35.6,30.01,SW,217,4.0,6.0,34,0.00,,,0.00,meteohub,2013-04-24 23:22:00,
2013-04-24 16:42:00,66.4,36.3,30.01,WSW,241,5.0,8.0,33,0.00,,,0.00,meteohub,2013-04-24 23:42:00,
2013-04-24 17:02:00,65.7,36.5,30.01,SW,226,6.0,7.0,34,0.00,,,0.00,meteohub,2013-04-25 00:02:00,
2013-04-24 17:22:00,66.4,36.3,30.01,SW,221,4.0,8.0,33,0.00,,,0.00,meteohub,2013-04-25 00:22:00,
2013-04-24 17:42:00,65.7,36.5,30.01,SSW,199,8.0,8.0,34,0.00,,,0.00,meteohub,2013-04-25 00:42:00,
2013-04-24 18:02:00,66.9,36.9,30.01,SSE,155,4.0,10.0,33,0.00,,,0.00,meteohub,2013-04-25 01:02:00,
2013-04-24 18:22:00,64.0,35.1,30.01,South,176,5.0,8.0,34,0.00,,,0.00,meteohub,2013-04-25 01:22:00,
2013-04-24 18:42:00,62.4,34.3,30.01,South,173,4.0,8.0,35,0.00,,,0.00,meteohub,2013-04-25 01:42:00,
2013-04-24 19:02:00,62.2,34.2,30.01,South,185,4.0,6.0,35,0.00,,,0.00,meteohub,2013-04-25 02:02:00,
2013-04-24 19:22:00,61.0,33.1,30.01,SSE,168,7.0,8.0,35,0.00,,,0.00,meteohub,2013-04-25 02:22:00,
2013-04-24 19:42:00,60.4,33.4,30.01,SW,222,4.0,7.0,36,0.00,,,0.00,meteohub,2013-04-25 02:42:00,
2013-04-24 20:02:00,60.1,33.8,30.01,SSW,210,4.0,8.0,37,0.00,,,0.00,meteohub,2013-04-25 03:02:00,
2013-04-24 20:22:00,60.1,33.8,30.04,SSW,202,5.0,9.0,37,0.00,,,0.00,meteohub,2013-04-25 03:22:00,
2013-04-24 20:42:00,59.9,33.6,30.04,South,185,3.0,11.0,37,0.00,,,0.00,meteohub,2013-04-25 03:42:00,
2013-04-24 21:02:00,59.9,33.6,30.04,South,188,4.0,8.0,37,0.00,,,0.00,meteohub,2013-04-25 04:02:00,
2013-04-24 21:22:00,59.7,33.4,30.04,SW,216,4.0,6.0,37,0.00,,,0.00,meteohub,2013-04-25 04:22:00,
2013-04-24 21:42:00,59.7,33.4,30.07,South,191,4.0,6.0,37,0.00,,,0.00,meteohub,2013-04-25 04:42:00,
2013-04-24 22:02:00,59.5,34.0,30.07,SW,226,2.0,5.0,38,0.00,,,0.00,meteohub,2013-04-25 05:02:00,
2013-04-24 22:22:00,59.5,34.0,30.07,South,182,5.0,6.0,38,0.00,,,0.00,meteohub,2013-04-25 05:22:00,
2013-04-24 22:42:00,59.5,34.0,30.07,SSE,163,0.0,4.0,38,0.00,,,0.00,meteohub,2013-04-25 05:42:00,
2013-04-24 23:02:00,59.2,34.2,30.07,SSW,208,0.0,0.0,39,0.00,,,0.00,meteohub,2013-04-25 06:02:00,
2013-04-24 23:22:00,58.8,35.2,30.07,SSW,208,0.0,0.0,41,0.00,,,0.00,meteohub,2013-04-25 06:22:00,
2013-04-24 23:42:00,59.0,36.0,30.07,South,180,3.0,4.0,42,0.00,,,0.00,meteohub,2013-04-25 06:42:00,